Date,TemperatureHighF,TemperatureAvgF,TemperatureLowF,DewpointHighF,DewpointAvgF,DewpointLowF,HumidityHigh,HumidityAvg,HumidityLow,PressureMaxIn,PressureMinIn,WindSpeedMaxMPH,WindSpeedAvgMPH,GustSpeedMaxMPH,PrecipitationSumIn
2013-3-1,32.0,30.3,28.4,31.4,28.1,24.6,99,91,81,30.15,30.04,13,5,13,0.00
2013-3-2,31.1,26.9,24.6,23.3,21.0,18.1,92,78,64,30.17,30.13,8,4,8,0.00
2013-3-3,36.5,24.0,20.3,19.2,14.4,11.4,84,68,38,30.17,30.11,12,2,12,0.00
2013-3-4,44.1,29.0,16.7,22.5,16.6,11.3,98,63,27,30.26,30.17,9,1,9,0.00
2013-3-5,38.3,31.1,28.8,29.4,24.9,19.5,99,79,50,30.20,29.78,21,6,21,0.00
2013-3-6,42.1,33.6,28.2,33.1,29.8,26.2,99,87,64,30.32,29.81,23,7,23,0.01
2013-3-7,42.4,32.8,30.9,32.5,29.7,28.4,96,89,64,30.42,30.31,10,2,10,0.00
2013-3-8,51.6,36.0,25.0,28.1,22.4,18.8,88,61,31,30.59,30.49,6,2,6,0.00
2013-3-9,53.8,39.9,25.2,35.7,30.0,24.9,99,71,40,30.51,30.15,8,2,8,0.00
2013-3-10,66.0,54.6,44.8,38.4,34.6,30.0,62,48,30,30.14,29.94,11,4,11,0.00
2013-3-11,59.7,48.0,37.0,52.3,43.4,32.1,99,84,42,29.94,29.63,24,9,24,0.28
2013-3-12,37.0,34.3,31.1,33.2,28.9,22.7,96,81,65,30.08,29.90,24,6,24,0.00
2013-3-13,33.6,32.5,31.5,28.3,27.4,25.9,87,81,74,30.07,30.04,14,6,14,0.00
2013-3-14,46.2,32.8,22.3,22.8,17.9,14.6,80,57,29,30.40,30.24,9,4,9,0.00
2013-3-15,50.2,39.1,30.9,41.3,31.5,21.6,99,75,53,30.23,29.94,9,4,9,0.06
2013-3-16,40.8,34.5,30.7,40.6,34.3,30.5,99,99,99,30.15,29.78,14,4,14,0.01
2013-3-17,32.7,29.4,27.1,31.4,21.8,18.3,99,73,61,30.32,30.15,14,4,14,0.01
2013-3-18,45.3,34.3,27.5,42.9,32.6,21.3,99,94,75,30.23,29.67,18,4,18,0.13
2013-3-19,35.8,30.9,25.2,35.5,18.2,10.8,99,60,41,30.10,29.84,30,5,30,0.00
2013-3-20,34.2,28.0,24.6,18.1,15.0,7.5,68,58,35,30.10,30.06,17,4,17,0.00
2013-3-21,32.7,24.6,16.2,18.6,13.6,6.9,84,64,50,30.08,30.02,9,4,9,0.00
2013-3-22,46.8,33.9,23.9,17.8,14.4,8.8,70,48,21,30.13,30.07,8,3,8,0.00
2013-3-23,53.4,33.4,22.3,25.2,21.2,14.4,92,63,21,30.19,30.11,8,2,8,0.00
2013-3-24,36.1,30.8,27.0,24.7,21.7,16.9,85,70,47,30.10,29.63,26,8,26,0.00
2013-3-25,35.1,32.4,29.7,34.6,32.1,25.5,99,99,76,30.01,29.55,21,7,21,0.12
2013-3-26,32.9,32.7,32.5,32.7,32.5,32.3,99,99,99,30.04,30.01,4,0,6,0.00
2013-3-27,47.1,39.0,32.7,31.4,25.7,18.7,94,60,33,30.35,30.25,15,4,15,0.01
2013-3-28,57.0,40.7,28.0,28.0,22.0,14.7,73,50,21,30.40,30.35,13,4,13,0.00
2013-3-29,59.2,42.4,27.0,32.0,19.4,3.5,99,49,11,30.41,30.31,11,2,11,0.00
2013-3-30,60.4,43.6,26.8,29.6,21.4,2.8,93,49,11,30.34,30.05,14,2,14,0.00
2013-3-31,61.2,48.4,37.9,46.1,34.2,26.4,93,60,29,30.06,29.80,21,4,21,0.04